Date String (YYYY-MM-DD hh:mm:ss) UTC,Instrument flags,Ambient pressure (hPa),Sample flow (lpm),Bypass flow (lpm),Sample temperature (°C),Ambient temperature (°C),ASC tube jacket temperature (°C),LED temperature (°C),Box temperature (°C),Sample RH (%),Span deviation,Mass concentration (μg/m³),Mass concentration (μg/m³),Mass concentration (μg/m³)
DateTimeUTC,F1_M11,P_M11,Q1_M11,Q2_M11,T1_M11,T2_M11,T3_M11,T4_M11,T5_M11,U1_M11,ZSPAN_M11,X0_M11,X2_M11,X1_M11
2023-04-24 01:00:00,,0826.9,4.98,0.00,25.9,24.6,00.0,34.2,27.5,11.5,0000.1,0012.77,0007.77,0007.16
2023-04-24 01:01:00,,0826.9,5.01,0.00,25.9,24.6,00.0,34.2,27.5,11.6,0000.4,0012.14,0007.77,0007.14
2023-04-24 01:02:00,,0826.9,5.01,0.00,25.9,24.6,00.0,34.2,27.5,11.4,-000.1,0011.73,0007.74,0007.12
2023-04-24 01:03:00,,0826.9,5.00,0.00,25.9,24.6,00.0,34.2,27.5,11.5,-001.0,0011.73,0007.77,0007.13
2023-04-24 01:04:00,,0826.9,5.00,0.00,25.9,24.6,00.0,34.2,27.5,11.5,-001.8,0011.63,0007.74,0007.11
2023-04-24 01:05:00,,0826.9,4.99,0.00,25.9,24.6,00.0,34.3,27.5,11.4,-001.5,0011.56,0007.72,0007.11
2023-04-24 01:06:00,,0826.9,5.00,0.00,25.9,24.6,00.0,34.3,27.6,11.6,-002.2,0011.61,0007.73,0007.11
2023-04-24 01:07:00,,0826.9,5.01,0.00,26.0,24.6,00.0,34.3,27.6,11.5,-002.7,0011.59,0007.70,0007.09
2023-04-24 01:08:00,,0826.9,4.99,0.00,26.0,24.7,00.0,34.3,27.6,11.4,-002.2,0011.66,0007.72,0007.09
2023-04-24 01:09:00,,0826.9,4.99,0.00,26.0,24.7,00.0,34.3,27.6,11.5,-000.6,0011.45,0007.71,0007.10
2023-04-24 01:10:00,,0826.9,5.01,0.00,26.0,24.6,00.0,34.3,27.6,11.6,-000.9,0011.30,0007.73,0007.10
2023-04-24 01:11:00,,0826.9,5.01,0.00,26.0,24.6,00.0,34.3,27.6,11.6,0000.0,0011.29,0007.73,0007.10
2023-04-24 01:12:00,,0826.9,4.99,0.00,26.0,24.7,00.0,34.3,27.6,11.5,-000.3,0011.33,0007.73,0007.11
2023-04-24 01:13:00,,0826.9,5.00,0.00,26.0,24.7,00.0,34.3,27.6,11.6,0001.5,0012.26,0007.78,0007.12
2023-04-24 01:14:00,,0826.9,5.01,0.00,26.0,24.6,00.0,34.3,27.6,11.6,0004.3,0012.94,0007.81,0007.13
2023-04-24 01:15:00,,0826.9,5.01,0.00,26.0,24.7,00.0,34.3,27.6,11.7,0005.7,0013.38,0007.85,0007.15
2023-04-24 01:16:00,,0826.9,5.00,0.00,26.0,24.6,00.0,34.3,27.6,11.5,0006.2,0013.34,0007.84,0007.15
2023-04-24 01:17:00,,0826.9,4.98,0.00,26.0,24.6,00.0,34.3,27.6,11.5,0006.3,0013.33,0007.84,0007.17
2023-04-24 01:18:00,,0826.9,5.01,0.00,26.0,24.7,00.0,34.3,27.6,11.6,0005.9,0013.34,0007.87,0007.19
2023-04-24 01:19:00,,0826.9,5.00,0.00,26.0,24.7,00.0,34.4,27.6,11.5,0005.8,0013.37,0007.89,0007.21
2023-04-24 01:20:00,,0826.9,4.99,0.00,26.0,24.7,00.0,34.4,27.6,11.5,0006.5,0013.44,0007.92,0007.23
2023-04-24 01:21:00,,0826.9,4.98,0.00,26.0,24.7,00.0,34.4,27.6,11.6,0006.7,0013.39,0007.90,0007.24
2023-04-24 01:22:00,,0826.9,4.99,0.00,26.0,24.7,00.0,34.4,27.6,11.5,0007.0,0013.65,0007.93,0007.26
2023-04-24 01:23:00,,0826.9,5.00,0.00,26.0,24.7,00.0,34.4,27.6,11.6,0006.6,0013.61,0007.94,0007.27
2023-04-24 01:24:00,,0826.9,5.00,0.00,26.0,24.7,00.0,34.4,27.6,11.5,0006.0,0013.02,0007.93,0007.29
2023-04-24 01:25:00,,0826.9,5.00,0.00,26.0,24.7,00.0,34.4,27.6,11.6,0005.5,0012.35,0007.90,0007.29
2023-04-24 01:26:00,,0827.0,5.00,0.00,26.0,24.7,00.0,34.4,27.6,11.5,0004.9,0011.80,0007.89,0007.30
2023-04-24 01:27:00,,0826.9,4.99,0.00,26.0,24.7,00.0,34.4,27.6,11.4,0005.4,0012.00,0007.91,0007.30
2023-04-24 01:28:00,,0826.9,5.00,0.00,26.0,24.7,00.0,34.4,27.6,11.4,0005.6,0012.00,0007.91,0007.31
2023-04-24 01:29:00,,0826.9,5.00,0.00,26.0,24.7,00.0,34.4,27.6,11.4,0005.3,0011.96,0007.91,0007.31
2023-04-24 01:30:00,,0826.9,5.00,0.00,26.1,24.7,00.0,34.4,27.7,11.4,0005.7,0012.09,0007.93,0007.31
2023-04-24 01:31:00,,0826.9,5.00,0.00,26.1,24.7,00.0,34.4,27.7,11.3,0006.0,0012.02,0007.89,0007.32
2023-04-24 01:32:00,,0826.9,5.01,0.00,26.1,24.7,00.0,34.4,27.6,11.2,0005.7,0012.05,0007.90,0007.32
2023-04-24 01:33:00,,0826.9,5.00,0.00,26.1,24.7,00.0,34.4,27.7,11.3,0005.5,0011.98,0007.89,0007.31
2023-04-24 01:34:00,,0826.9,5.00,0.00,26.1,24.7,00.0,34.4,27.7,11.3,0005.0,0011.83,0007.84,0007.30
2023-04-24 01:35:00,,0826.9,4.99,0.00,26.1,24.7,00.0,34.4,27.7,11.3,0006.2,0012.14,0007.86,0007.31
2023-04-24 01:36:00,,0827.0,5.00,0.00,26.1,24.8,00.0,34.4,27.7,11.2,0005.7,0012.27,0007.90,0007.31
2023-04-24 01:37:00,,0827.0,5.01,0.00,26.1,24.8,00.0,34.4,27.7,11.3,0006.6,0012.39,0007.93,0007.30
2023-04-24 01:38:00,,0827.0,5.01,0.00,26.1,24.8,00.0,34.5,27.7,11.2,0006.4,0012.19,0007.95,0007.33
2023-04-24 01:39:00,,0826.9,4.99,0.00,26.1,24.8,00.0,34.5,27.7,11.1,0006.0,0012.78,0007.96,0007.32
2023-04-24 01:40:00,,0827.0,5.00,0.00,26.1,24.8,00.0,34.5,27.7,11.1,0006.0,0012.82,0007.94,0007.30
2023-04-24 01:41:00,,0827.0,5.01,0.00,26.1,24.8,00.0,34.5,27.7,11.0,0006.2,0012.68,0007.90,0007.29
2023-04-24 01:42:00,,0827.1,5.01,0.00,26.1,24.7,00.0,34.5,27.7,11.1,0005.7,0013.09,0007.90,0007.28
2023-04-24 01:43:00,,0827.1,5.00,0.00,26.1,24.7,00.0,34.5,27.7,11.1,0005.2,0013.18,0007.87,0007.27
2023-04-24 01:44:00,,0827.1,4.99,0.00,26.1,24.8,00.0,34.5,27.7,11.1,0004.9,0013.20,0007.87,0007.28
2023-04-24 01:45:00,,0827.1,5.00,0.00,26.1,24.7,00.0,34.5,27.7,11.1,0004.8,0013.27,0007.90,0007.30
2023-04-24 01:46:00,,0827.1,5.00,0.00,26.1,24.7,00.0,34.5,27.7,11.1,0005.0,0013.23,0007.91,0007.30
2023-04-24 01:47:00,,0827.1,5.01,0.00,26.1,24.8,00.0,34.5,27.7,11.2,0005.9,0013.52,0007.90,0007.30
2023-04-24 01:48:00,,0827.1,5.00,0.00,26.1,24.8,00.0,34.5,27.7,11.2,0005.2,0013.46,0007.92,0007.32
2023-04-24 01:49:00,,0827.1,5.01,0.00,26.2,24.8,00.0,34.5,27.7,11.3,0003.3,0013.46,0007.92,0007.31
2023-04-24 01:50:00,,0827.1,5.00,0.00,26.2,24.8,00.0,34.5,27.7,11.4,0002.6,0013.04,0007.92,0007.30
2023-04-24 01:51:00,,0827.1,5.00,0.00,26.2,24.8,00.0,34.5,27.8,11.7,0002.5,0013.67,0007.93,0007.32
2023-04-24 01:52:00,,0827.1,4.99,0.00,26.2,24.8,00.0,34.5,27.8,11.8,0002.9,0013.69,0007.94,0007.32
2023-04-24 01:53:00,,0827.1,5.00,0.00,26.2,24.9,00.0,34.5,27.8,11.8,0001.8,0013.23,0007.95,0007.33
2023-04-24 01:54:00,,0827.1,5.00,0.00,26.2,24.9,00.0,34.5,27.8,11.8,0000.2,0013.17,0007.98,0007.34
2023-04-24 01:55:00,,0827.1,4.99,0.00,26.2,24.9,00.0,34.6,27.8,11.7,0011.4,0013.17,0008.00,0007.35
2023-04-24 01:56:00,,0827.1,4.99,0.00,26.2,24.9,00.0,34.6,27.8,11.7,0010.0,0013.30,0008.02,0007.36
2023-04-24 01:57:00,,0827.1,4.99,0.00,26.2,24.9,00.0,34.6,27.8,11.7,-000.9,0013.23,0008.06,0007.37
2023-04-24 01:58:00,,0827.1,5.00,0.00,26.3,24.9,00.0,34.6,27.9,11.6,0000.1,0012.85,0008.05,0007.37
2023-04-24 01:59:00,,0827.1,4.99,0.00,26.3,24.9,00.0,34.6,27.8,11.7,0000.6,0012.79,0008.03,0007.37
